Wind_Speed
7 8 8 7 8 8 6 6 6 6 6 4 4 5 5 4 3 3 3 3 5 7 8 9 10 9 7 7 7 6 5 5 5 6 5 2 2 4 5 6 6 7 7 7 7 7 7 7 6 6 6 6 6 6 6 6 7 7 7 7 6 6 6 7 7 7 6 6 4 3 2 1 1 1 1 1 1 2 3 3 3 3 3 4 4
7 7 7 6 6 6 5 5 5 5 4 4 4 4 4 4 2 2 3 3 5 9 9 9 11 11 9 7 7 5 4 3 4 6 5 3 2 2 4 5 5 6 7 7 6 6 6 6 6 6 6 6 7 7 6 6 7 7 7 7 7 7 6 6 7 7 6 6 5 4 3 3 3 3 2 1 1 2 2 2 1 2 2 3 4
7 6 6 5 4 4 5 5 5 4 3 3 3 3 4 4 2 2 4 5 7 10 11 11 12 12 11 8 6 5 5 4 3 5 4 3 2 2 2 4 4 5 7 7 6 6 6 6 6 6 6 7 7 7 6 6 7 7 7 7 7 7 7 6 6 6 6 6 5 4 4 4 3 3 2 2 2 2 3 3 3 4 4 4 4
8 6 6 5 3 4 4 4 4 4 3 2 2 3 3 3 3 3 4 5 8 10 11 11 10 9 9 6 4 4 5 5 3 5 5 4 3 2 2 2 2 4 6 7 7 7 7 7 7 7 7 7 7 7 7 7 7 7 7 7 6 7 7 7 6 6 6 6 5 5 5 4 4 3 3 3 3 3 3 4 5 5 6 6 6
9 7 6 4 4 4 4 4 4 3 3 2 2 3 3 3 3 3 4 6 9 11 11 9 7 5 6 5 4 4 6 6 4 5 5 4 3 2 2 2 2 2 4 5 7 7 7 7 7 8 8 7 7 7 7 7 7 7 7 7 7 7 7 7 6 6 6 6 5 5 5 5 4 4 4 4 4 4 4 5 5 6 6 6 7
10 8 7 6 6 6 5 4 3 3 2 2 2 2 3 3 3 3 5 9 12 12 11 8 5 3 5 5 5 6 8 8 4 4 3 3 3 3 2 2 2 2 2 3 5 7 8 8 8 8 8 8 8 8 8 8 7 7 7 7 7 7 7 7 7 6 6 6 6 5 5 5 4 4 4 4 5 5 6 6 6 6 6 6 7
11 11 9 8 8 6 5 5 4 3 2 1 2 2 3 4 4 4 6 10 13 11 10 7 3 4 6 6 7 10 11 8 4 2 2 3 2 3 3 3 3 3 3 3 3 4 6 8 9 9 8 8 9 8 8 8 8 8 7 7 7 7 7 7 7 7 6 6 6 5 5 5 5 5 5 6 6 7 7 7 8 8 7 7 8
14 13 11 9 8 6 5 5 4 3 2 1 2 2 2 4 6 8 9 12 13 10 9 6 3 5 8 8 9 11 10 6 2 1 2 3 2 2 3 4 4 3 4 4 3 3 4 6 8 9 9 9 9 9 9 8 8 8 8 8 7 7 7 7 7 7 7 6 6 6 6 6 6 6 7 7 8 9 9 9 9 9 9 9 9
16 14 12 10 8 8 7 5 4 3 2 2 3 3 3 4 9 12 13 13 11 8 7 5 5 7 8 9 9 9 7 3 1 2 2 3 3 4 4 4 4 4 4 4 4 4 4 4 6 7 8 8 9 9 8 8 8 8 8 8 8 8 8 8 7 7 7 7 7 7 7 7 7 7 8 8 9 10 10 10 10 10 10 10 10
17 16 13 11 10 9 7 5 5 4 3 4 4 4 4 4 8 12 13 11 8 5 5 5 9 10 8 7 6 6 4 1 2 3 2 3 3 4 4 4 4 3 4 4 4 4 4 4 4 5 6 7 7 7 7 7 7 7 8 8 8 8 9 8 8 8 8 8 8 8 8 8 8 8 8 8 9 9 9 10 10 9 10 10 10
17 17 15 13 12 11 8 6 6 5 4 5 4 4 5 5 6 10 11 10 7 4 4 6 11 12 8 5 3 3 2 2 3 4 4 4 4 4 3 3 3 2 2 3 3 3 3 3 4 4 4 5 5 5 6 6 6 7 7 7 7 8 9 9 9 9 9 8 8 9 9 9 8 8 8 8 9 9 9 9 9 9 10 10 11
15 16 16 15 13 12 9 8 7 6 5 6 5 4 5 5 6 9 10 10 8 6 5 7 11 11 7 6 4 3 3 4 5 5 5 4 4 4 4 5 4 3 2 2 2 1 1 2 3 3 4 4 4 4 4 4 5 6 6 6 6 7 7 8 8 9 8 9 9 9 9 9 9 9 9 9 9 9 9 9 9 9 9 8 8
15 15 17 17 15 13 11 9 7 6 6 6 6 5 4 5 6 8 11 11 9 9 7 8 10 9 9 10 7 5 5 5 6 7 6 6 5 6 6 6 6 5 3 1 2 1 1 2 2 2 3 4 5 5 4 4 5 6 6 6 6 5 6 7 7 7 7 7 8 8 8 8 8 8 8 8 7 7 7 7 6 6 6 6 6
16 16 17 17 16 14 13 11 8 7 7 7 6 6 5 5 6 9 11 12 11 10 9 9 9 7 9 12 10 7 6 5 5 6 5 6 6 6 5 4 4 5 5 3 2 2 3 3 3 2 3 3 4 4 4 4 5 5 5 5 6 6 6 6 6 5 5 6 6 6 6 6 6 5 5 5 4 4 4 3 4 4 4 5 5
17 17 17 17 17 15 13 11 9 8 8 7 6 6 6 5 7 10 12 12 12 11 9 9 10 9 10 12 12 10 9 8 7 5 5 4 4 4 3 1 1 2 4 3 2 4 4 2 3 2 2 3 3 4 4 5 5 5 5 5 6 6 6 6 5 5 4 4 4 4 4 3 2 2 2 2 1 2 2 2 3 3 4 4 5
17 16 17 17 17 16 14 12 11 9 9 9 7 7 7 6 8 11 12 12 13 11 10 9 9 11 12 11 11 12 11 11 9 7 7 6 4 4 4 3 3 0 1 1 2 4 3 1 2 3 3 3 3 3 4 5 5 4 5 5 5 5 5 4 4 4 3 3 3 2 1 1 1 0 0 1 1 2 2 2 2 3 3 4 4
16 16 16 17 17 16 14 13 12 10 9 9 8 7 7 7 8 11 11 12 13 12 11 9 8 11 11 10 9 10 11 12 10 9 10 9 7 6 6 4 4 3 2 1 2 3 3 3 1 1 2 4 5 4 5 5 4 4 4 4 4 4 4 3 3 2 2 2 2 2 2 1 1 1 0 0 1 1 1 2 2 2 3 3 3
16 17 16 17 17 17 15 13 12 12 10 10 9 8 8 8 9 11 11 12 12 11 11 10 11 11 10 10 8 8 11 13 12 11 10 11 9 7 6 4 5 6 5 4 2 0 2 2 3 3 1 2 5 5 6 5 4 4 4 4 4 4 4 4 3 3 2 3 3 3 3 2 2 1 1 1 1 1 1 2 2 2 3 3 3
17 17 17 17 17 17 16 14 13 12 12 11 10 9 9 9 10 11 12 11 10 9 9 11 13 13 11 11 8 7 12 14 14 13 12 12 11 9 7 5 7 9 9 8 5 3 2 1 3 4 3 1 4 6 6 6 5 5 5 5 4 4 4 4 3 4 4 4 4 4 4 3 2 2 1 1 1 1 2 2 2 3 3 4 4
17 17 18 18 17 17 17 15 15 14 13 12 11 9 10 10 11 12 12 11 10 9 9 10 12 14 13 12 9 9 12 14 14 12 11 13 14 12 9 8 8 10 11 10 8 7 5 3 2 4 4 4 2 4 6 6 6 5 5 5 5 5 5 5 4 5 5 5 5 4 4 3 3 2 2 2 2 2 2 3 3 4 4 5 5
18 17 18 19 18 18 17 17 16 15 14 13 12 11 11 11 11 12 12 11 9 9 9 8 9 14 15 14 13 11 11 13 13 12 12 12 14 12 9 9 10 11 12 11 10 10 8 6 3 3 3 3 3 2 4 4 4 5 5 4 5 5 5 5 6 6 6 5 5 4 3 3 2 2 2 1 1 1 2 2 3 4 4 5 5
20 18 18 20 20 18 18 18 17 16 15 14 13 13 12 12 12 12 11 11 10 9 9 8 8 13 17 15 14 13 12 14 15 15 14 12 11 8 7 11 12 11 12 12 11 11 11 8 5 3 1 1 2 2 2 2 2 3 3 4 4 5 6 6 6 6 6 5 5 4 3 3 2 2 2 1 1 1 2 3 3 4 5 6 6
22 19 18 20 21 20 18 18 18 17 16 15 15 14 13 12 13 13 12 11 11 9 8 10 9 12 17 17 15 14 14 15 15 15 15 14 12 8 7 11 12 10 12 13 12 12 12 10 7 5 3 2 2 1 1 2 1 2 3 4 5 5 5 5 6 6 6 5 5 4 4 3 3 2 1 1 1 2 3 4 5 5 6 6 6
24 21 19 19 19 20 19 19 19 18 17 17 16 14 13 13 14 13 12 11 12 10 9 10 10 12 16 17 15 14 15 15 15 15 15 14 13 10 8 9 11 11 11 13 14 13 13 11 9 7 5 5 5 5 4 4 3 3 4 4 5 6 5 5 5 5 5 5 5 4 4 4 3 3 2 3 3 3 4 5 6 7 7 7 7
26 23 21 20 20 20 20 20 20 18 18 17 16 15 14 14 14 13 12 12 12 11 9 9 10 11 13 15 15 14 14 14 16 16 15 13 13 12 10 9 11 10 11 14 15 13 13 12 10 9 8 8 9 7 6 4 4 5 6 6 6 6 6 6 6 6 5 6 5 5 5 5 4 4 4 4 4 4 5 6 7 8 8 8 8
26 23 22 21 21 20 20 20 20 19 18 17 16 16 15 15 15 14 13 12 11 11 10 10 10 10 12 13 14 13 12 13 15 16 16 15 14 13 11 10 10 10 12 14 15 15 14 12 12 12 11 11 10 8 5 4 4 5 6 7 7 8 8 7 7 6 6 7 7 7 7 6 6 6 5 5 5 5 6 7 8 8 8 8 8
24 22 22 22 21 20 20 20 20 19 19 18 18 17 17 17 17 15 14 12 12 12 12 12 11 11 11 12 12 12 12 13 15 16 17 17 15 13 11 12 12 12 13 14 16 17 16 14 14 14 14 13 11 9 7 6 6 7 7 8 8 9 10 9 8 8 8 8 8 8 8 8 7 7 7 7 7 6 6 7 8 8 8 8 7
22 22 21 21 21 20 19 19 19 20 19 19 19 18 18 18 18 17 15 14 14 13 13 13 12 11 11 12 12 12 12 14 16 17 17 17 15 13 13 14 15 14 14 16 18 19 17 16 17 16 15 14 12 10 10 10 9 10 11 11 10 10 10 10 10 10 9 9 10 10 10 9 8 8 8 8 8 8 7 8 8 8 9 9 8
24 23 22 21 21 20 19 18 18 19 19 19 19 19 19 19 19 19 17 16 15 14 14 14 13 12 12 13 13 13 13 15 16 17 18 17 16 15 15 15 16 17 17 18 20 19 17 17 17 15 14 13 12 11 11 11 10 11 14 14 13 13 12 12 12 11 11 11 11 11 11 10 9 9 9 9 9 9 9 8 8 8 9 9 9
26 25 24 22 22 21 20 19 19 19 19 19 19 19 20 20 20 19 18 17 17 17 16 15 14 15 15 15 15 15 16 17 17 18 19 18 17 18 18 18 18 19 20 21 22 20 18 17 17 15 14 14 14 13 12 12 11 13 15 15 15 14 14 14 14 13 13 12 12 12 12 12 11 10 11 11 11 10 10 10 9 9 9 11 11
28 27 25 24 23 23 22 21 20 20 20 20 20 20 21 21 21 20 20 19 20 19 18 17 16 17 17 17 18 18 18 19 19 20 20 19 18 19 20 21 21 22 22 23 24 22 19 19 18 16 16 15 16 16 16 15 14 15 16 16 15 15 15 17 16 15 14 14 14 13 13 13 12 12 12 12 13 12 12 11 11 10 11 12 13
30 28 27 25 24 24 24 23 23 22 22 22 21 22 22 23 23 22 21 21 22 21 20 20 19 19 20 20 20 20 19 21 22 22 22 22 21 21 21 22 23 24 24 25 27 24 21 20 20 19 19 19 19 20 20 18 17 18 18 18 17 17 17 18 18 17 16 15 15 15 15 15 14 14 14 14 14 14 14 13 12 12 12 13 14
31 30 29 27 26 25 25 25 24 24 24 23 23 23 23 24 24 24 23 23 24 23 22 23 22 22 22 22 22 22 21 22 23 24 25 24 24 23 24 24 25 26 26 27 29 27 23 23 23 22 22 23 24 23 22 21 21 21 21 20 19 19 19 19 19 18 17 17 16 16 16 16 16 16 15 15 16 15 15 14 14 13 14 15 16
33 32 31 29 28 27 27 26 26 26 25 25 24 24 25 25 25 25 25 25 25 24 24 25 25 25 25 25 24 24 24 24 25 25 26 27 27 27 27 27 27 27 27 28 29 30 28 25 25 25 25 26 27 26 25 24 23 22 23 22 21 21 20 20 20 19 18 18 18 17 17 17 17 17 16 16 16 15 15 15 14 14 15 16 17
34 33 32 31 30 29 28 28 27 27 27 26 26 27 27 27 27 27 27 27 26 26 26 26 25 26 27 27 26 25 25 26 26 26 27 27 29 31 31 31 31 30 30 30 31 32 31 28 27 27 27 28 29 28 27 26 25 24 25 24 24 23 23 22 22 21 20 20 20 19 19 18 18 18 17 16 16 15 15 15 15 15 15 17 18
36 35 33 33 32 31 30 29 29 29 28 28 28 28 29 29 28 28 29 29 29 28 28 27 27 27 28 28 27 27 27 28 28 27 27 28 29 32 33 34 35 34 33 33 34 33 34 33 31 29 28 29 30 30 29 29 28 28 27 27 27 27 26 25 24 23 22 21 22 22 21 20 20 20 19 18 17 16 16 16 16 16 16 17 18
38 37 36 35 34 33 32 31 31 31 30 30 30 30 30 30 30 30 30 30 31 31 30 29 29 29 29 29 28 27 28 29 29 28 28 29 29 31 33 34 36 37 37 37 37 37 37 38 36 33 31 31 32 32 32 32 31 30 30 30 30 30 29 28 27 25 23 23 23 23 23 23 22 22 21 20 19 17 16 17 17 17 17 17 17
40 39 38 37 36 35 34 33 33 32 32 31 31 31 31 31 31 31 32 32 32 33 33 32 32 31 31 31 29 29 30 30 30 29 29 29 30 31 33 34 34 36 38 39 40 40 40 41 40 38 36 34 34 34 34 34 34 33 33 33 33 33 33 32 30 28 25 25 24 24 25 24 24 23 23 22 20 18 18 18 18 18 17 17 17
41 40 40 39 38 37 36 35 34 34 34 33 33 33 32 33 33 33 34 34 34 34 34 34 34 34 33 32 32 31 31 31 31 30 30 30 31 31 32 33 33 35 37 38 40 41 42 42 42 41 40 38 36 36 35 36 36 37 37 37 37 37 36 35 33 30 28 27 26 26 25 25 24 24 24 23 21 20 20 20 19 18 18 18 18
42 41 40 40 39 38 37 37 36 36 36 36 35 34 34 34 34 35 35 36 36 36 35 35 35 36 36 35 35 34 34 34 33 32 32 32 32 33 32 32 33 35 36 37 39 41 42 43 42 42 41 40 39 37 36 36 39 41 41 41 41 40 38 37 35 32 30 29 28 27 26 26 25 25 25 24 23 22 21 20 19 19 18 18 18
42 41 41 40 40 40 39 39 38 38 38 38 37 36 35 35 35 36 36 36 38 38 37 37 37 37 37 37 37 36 36 35 35 34 34 34 35 35 34 34 35 36 36 37 38 40 41 43 43 42 42 42 41 39 38 39 41 42 41 41 42 41 39 39 38 35 32 31 30 29 28 27 27 26 26 25 25 24 22 21 21 20 18 17 18
42 41 41 41 41 41 41 40 39 39 40 39 38 37 36 36 36 37 37 37 38 39 39 39 38 38 37 37 37 36 36 36 36 36 36 36 37 37 36 36 37 37 38 38 39 40 41 42 43 42 43 44 43 41 41 41 40 41 41 41 42 41 40 41 40 37 34 33 32 32 31 28 28 28 27 27 26 25 24 23 22 19 17 17 18
43 42 42 42 42 42 42 41 40 40 41 40 38 38 37 37 38 39 39 39 39 39 40 40 40 39 38 38 38 37 37 37 36 36 36 37 38 38 38 38 39 39 40 41 42 42 42 44 44 43 44 45 42 41 43 42 41 41 41 41 42 41 41 42 42 39 36 33 34 35 33 30 29 30 29 28 27 27 26 24 22 19 18 18 19
44 44 43 43 43 43 42 42 42 41 41 39 39 38 38 38 38 39 40 40 40 40 40 40 40 40 40 40 39 39 39 38 37 37 37 37 37 38 38 39 40 41 41 42 43 44 45 46 46 46 46 46 43 41 42 43 42 42 42 42 42 42 43 43 43 41 36 32 34 35 34 32 30 32 32 31 29 28 26 24 22 20 19 20 20
45 45 44 44 44 44 44 44 43 42 41 39 39 39 38 37 37 38 39 39 40 40 40 40 41 41 41 41 41 42 41 40 40 40 40 39 39 39 40 41 42 42 43 43 44 45 46 47 49 50 49 47 46 44 41 41 42 43 43 43 42 42 44 44 43 40 35 34 35 36 36 33 31 32 34 32 29 28 26 24 23 21 21 22 21
47 46 46 45 44 45 45 45 44 43 42 40 39 38 38 37 36 36 37 38 39 40 40 40 40 40 41 41 42 43 42 42 43 43 43 43 42 42 43 43 44 44 45 45 46 46 46 48 50 52 50 49 49 46 43 42 44 45 45 44 43 42 43 42 40 38 36 36 37 37 37 35 31 33 35 32 29 28 26 24 23 22 23 23 22
48 47 47 46 45 45 45 45 45 44 42 40 39 38 37 36 35 35 36 37 38 39 40 40 40 40 41 41 42 43 43 43 44 44 44 45 45 45 46 47 47 47 47 48 48 47 47 48 50 50 50 49 49 48 46 46 47 47 46 46 46 44 42 41 40 40 40 39 38 39 40 36 32 33 34 31 29 29 27 25 23 23 24 24 23
47 47 47 47 46 46 45 45 45 45 43 41 40 38 36 35 35 35 36 37 38 39 39 39 40 40 40 41 42 42 42 43 43 43 44 44 46 48 49 50 50 50 51 52 50 49 49 49 50 50 50 50 50 50 49 49 49 49 47 49 49 46 43 42 43 43 41 39 38 40 41 37 33 33 33 30 30 29 27 25 25 24 25 25 24
46 47 48 47 47 47 46 46 46 45 43 41 40 39 38 36 36 36 36 37 38 39 39 39 39 40 40 39 40 40 41 41 41 41 42 43 45 48 49 51 51 53 56 55 52 51 51 51 51 51 50 51 51 52 52 52 52 51 50 52 52 48 46 46 46 45 42 40 39 39 40 39 36 34 32 31 30 30 28 27 26 25 26 26 26
43 44 45 46 46 47 47 47 47 46 45 43 42 41 40 38 37 37 37 38 39 40 40 39 39 40 40 40 39 40 41 40 40 40 40 42 45 47 48 50 51 54 57 55 53 53 53 53 53 53 52 52 51 52 54 54 54 54 54 56 55 50 48 49 48 46 44 44 42 39 39 41 39 36 34 33 32 32 30 28 27 27 28 29 27
39 40 42 43 45 46 46 47 47 47 46 44 43 42 41 40 39 39 38 39 40 40 40 40 40 40 40 39 39 39 40 40 40 40 40 42 45 46 47 49 52 56 56 53 52 54 54 54 55 54 54 53 52 52 52 53 55 56 58 59 57 53 51 50 49 46 45 48 47 43 41 42 41 38 37 36 35 34 33 31 29 29 29 30 29
Wind_Direction
140 149 149 141 131 129 123 117 118 118 126 123 118 131 140 142 146 143 144 152 139 134 143 146 150 157 150 141 140 127 112 99 68 70 89 113 152 160 157 157 163 169 172 180 187 190 192 191 189 190 188 184 185 187 186 185 183 176 172 169 166 171 180 185 186 186 188 191 197 198 190 172 163 164 154 79 34 33 43 49 48 34 9 355 350
142 155 159 148 134 131 123 119 120 118 120 122 125 137 144 141 149 150 157 155 127 128 138 144 150 161 166 159 155 142 125 119 80 78 92 105 126 154 157 156 168 175 177 180 184 187 191 195 196 196 196 193 194 197 197 195 193 192 190 184 177 177 183 192 197 198 197 200 208 214 209 197 198 202 215 258 303 327 346 358 355 353 339 333 336
159 160 160 156 149 143 136 127 121 114 109 110 121 141 143 130 126 133 142 138 129 131 132 136 144 158 170 166 162 158 150 152 105 81 94 107 109 111 134 146 163 178 183 185 186 187 189 196 200 200 201 199 200 204 204 202 202 202 201 197 191 188 187 191 200 204 204 208 213 216 214 210 218 229 252 276 290 307 314 311 306 309 311 312 315
182 178 169 168 172 166 156 147 133 123 113 103 122 154 146 124 116 116 123 130 141 143 134 131 133 150 172 177 185 182 170 166 124 83 90 99 105 100 99 111 141 173 183 187 189 192 194 197 199 203 203 200 203 208 209 209 209 209 207 205 202 202 200 196 200 204 205 209 212 214 217 221 235 252 266 278 289 297 299 304 305 305 309 309 307
193 191 189 181 189 193 175 164 153 137 122 109 143 162 148 125 120 126 136 143 145 142 133 128 124 151 192 214 227 212 191 177 131 85 80 81 100 112 105 90 99 154 177 184 188 192 199 202 203 206 205 204 207 208 211 214 215 216 215 212 211 214 214 208 207 209 209 212 216 222 226 227 239 258 269 276 286 290 291 301 304 303 309 310 308
198 197 203 195 196 196 174 172 167 151 143 132 160 160 133 109 113 143 156 155 148 138 133 129 126 164 186 193 187 178 179 169 127 81 70 79 108 126 121 111 114 124 150 175 185 187 196 203 207 210 209 210 210 209 211 214 216 220 220 220 218 219 222 222 217 217 218 220 224 230 233 235 241 254 268 276 282 287 288 294 298 300 303 303 304
202 204 207 203 203 198 175 181 177 168 170 147 178 174 128 105 121 156 158 155 148 138 136 131 142 169 155 152 150 148 157 156 130 85 94 101 120 140 136 133 136 131 135 146 166 179 189 197 205 212 214 214 211 210 212 213 216 221 223 227 228 224 226 229 227 227 228 229 234 239 242 244 247 255 265 274 279 282 284 287 290 292 293 293 296
205 208 209 210 211 203 190 191 182 179 176 165 219 210 154 124 135 146 144 147 146 139 141 134 150 166 140 135 137 136 144 147 161 215 139 145 164 162 159 152 148 143 141 139 140 153 171 186 197 206 212 215 213 212 213 214 218 221 225 227 232 234 232 233 234 237 238 239 244 246 248 252 254 259 263 269 273 277 282 285 286 286 287 289 292
211 210 212 219 220 207 196 191 184 185 190 208 226 210 175 144 142 145 142 143 146 148 151 144 157 162 138 129 130 130 134 131 183 216 171 174 187 173 165 158 154 150 144 136 133 141 149 172 189 196 203 212 215 214 214 218 222 224 229 230 234 239 239 239 238 243 244 244 251 252 252 255 259 263 265 271 276 280 285 287 288 289 291 294 297
216 216 216 224 225 214 201 194 194 193 202 220 223 201 180 160 148 152 154 147 150 166 169 161 160 161 148 131 124 124 125 113 170 197 180 169 179 170 163 159 157 149 145 139 130 138 149 165 184 187 194 204 209 212 212 219 225 228 234 238 240 241 242 243 242 246 247 244 251 256 257 258 262 265 266 273 279 283 287 290 293 295 298 300 302
216 215 217 223 224 218 208 196 195 196 207 218 218 198 180 170 155 161 167 158 155 163 155 158 156 156 153 140 139 147 140 154 173 171 148 147 169 170 162 151 141 134 153 154 140 142 151 163 178 184 193 202 204 207 211 219 224 226 235 241 245 246 246 247 246 250 253 252 256 260 261 260 264 267 267 271 277 282 287 292 295 297 299 300 302
213 208 210 218 221 219 214 198 193 195 204 211 210 196 179 174 166 171 179 170 160 150 135 152 155 150 146 140 154 168 145 144 155 147 128 129 154 152 135 120 107 103 135 155 147 135 160 182 184 190 200 206 208 210 210 221 228 225 226 235 245 248 248 249 251 254 257 260 262 263 263 262 265 269 271 274 279 285 291 295 298 300 303 305 308
212 205 205 213 218 219 216 206 205 204 205 211 208 199 186 176 174 178 187 184 172 161 156 164 161 151 144 142 143 151 150 136 129 130 118 108 120 128 120 108 93 83 85 110 137 76 343 261 229 226 222 214 213 210 207 220 230 228 221 225 236 236 239 243 250 258 261 265 266 267 267 263 265 270 276 281 286 292 296 300 306 310 317 321 319
214 207 206 211 217 221 218 213 217 216 213 217 210 203 197 181 178 178 183 186 179 174 181 189 188 180 166 157 152 154 169 166 145 142 134 110 115 125 120 109 86 70 68 88 111 37 350 275 246 270 257 233 217 210 207 210 218 225 221 221 225 224 231 238 243 255 264 268 265 265 268 266 268 273 280 287 295 300 304 313 320 325 326 323 321
214 211 210 212 218 223 222 217 217 218 219 221 211 203 205 192 182 180 177 175 170 168 178 192 200 195 178 172 168 166 176 190 194 185 173 150 140 151 160 183 147 68 64 84 82 16 360 277 244 262 259 235 218 213 205 199 203 214 215 215 215 212 218 229 235 240 251 259 254 253 260 264 265 270 282 297 320 324 325 325 324 324 321 320 323
212 212 210 212 219 223 222 219 215 216 220 222 217 207 208 200 187 188 185 176 168 167 173 182 191 182 172 173 175 176 181 189 197 201 201 203 199 199 204 217 232 269 31 55 36 25 49 93 235 247 242 222 210 210 198 188 192 203 205 206 207 204 208 218 222 224 231 231 225 220 208 185 180 162 310 333 346 333 325 323 324 327 325 326 330
211 212 210 210 216 221 221 219 215 216 218 221 220 210 206 202 196 197 193 182 176 183 190 188 186 180 174 171 173 186 192 186 188 200 211 213 214 215 212 220 241 257 268 270 10 45 91 91 114 198 229 220 208 210 203 192 195 205 204 202 206 205 206 205 200 205 211 193 170 157 153 150 148 147 136 65 327 315 316 326 333 335 335 336 337
213 213 212 210 213 218 220 216 215 216 216 219 219 212 207 201 201 203 197 186 179 189 204 199 188 184 186 187 185 194 194 184 183 193 204 210 211 212 215 240 256 254 255 258 278 225 135 67 63 87 75 226 210 211 209 206 211 216 212 208 210 210 209 205 194 191 183 160 149 145 149 154 154 155 157 187 264 287 308 320 323 326 330 335 337
215 215 215 212 212 215 218 216 215 215 215 219 217 212 207 198 202 206 203 196 185 184 198 196 187 183 189 202 200 187 187 185 184 186 189 195 200 205 221 259 269 257 254 257 261 250 231 341 42 60 58 128 204 213 212 211 217 219 215 214 215 216 214 208 192 177 166 154 148 149 154 161 167 174 192 213 246 267 287 300 305 314 321 326 328
216 218 218 215 213 214 215 215 215 214 214 218 215 211 206 201 201 204 206 205 194 186 189 191 189 185 188 198 194 178 184 190 190 193 193 190 195 207 223 245 260 259 254 254 260 264 263 276 352 44 74 84 125 205 212 211 212 209 212 215 214 213 210 204 189 174 165 159 157 162 167 174 182 194 207 220 240 259 280 293 305 312 315 319 319
220 221 219 215 213 213 214 215 214 213 213 214 212 209 207 207 205 205 209 208 202 195 191 195 197 193 195 197 191 180 183 194 199 209 215 205 201 210 217 221 233 244 244 245 251 260 261 260 306 32 86 72 63 145 194 197 191 192 201 203 199 201 200 196 189 181 178 177 178 185 188 195 197 201 209 221 247 280 305 315 320 321 321 321 321
224 221 218 214 213 213 215 216 214 212 213 212 211 210 208 209 211 211 212 210 210 206 199 207 206 198 202 205 199 192 189 195 201 208 215 217 216 218 213 208 215 227 235 240 246 254 255 249 270 333 13 353 40 95 157 176 182 200 212 213 207 204 202 199 196 195 198 199 201 205 207 209 207 205 212 225 279 326 343 343 342 338 336 333 330
227 221 217 214 212 212 214 216 214 212 213 214 213 212 211 212 213 214 212 209 214 216 209 216 215 203 207 213 211 208 205 203 205 207 210 216 224 228 220 214 219 227 237 249 253 253 250 246 258 290 304 302 324 338 263 233 249 274 266 249 231 218 214 213 211 210 213 212 211 214 217 222 224 228 250 284 319 343 353 353 352 349 346 342 337
228 221 215 213 212 211 212 215 214 211 211 213 214 213 213 216 216 215 212 209 213 216 213 217 218 207 209 217 220 220 223 220 215 216 218 224 231 230 224 230 235 235 237 246 250 249 246 248 260 276 283 289 296 298 285 275 286 304 307 290 254 235 231 230 228 227 229 228 224 225 228 235 247 260 281 300 317 335 342 346 348 349 349 347 342
224 219 214 215 215 213 212 215 215 213 210 211 215 215 215 218 219 218 216 212 213 216 213 216 218 211 211 221 225 223 226 227 222 222 222 222 224 221 223 245 254 250 245 243 246 247 243 245 258 270 277 286 292 295 293 296 306 306 307 307 279 255 248 241 238 243 246 247 247 247 247 248 256 267 278 293 307 322 331 338 342 345 346 343 337
220 216 214 217 220 219 216 216 217 217 213 212 216 217 219 222 223 223 220 217 216 216 215 216 215 211 209 217 224 220 217 221 220 220 218 210 209 212 220 245 263 266 260 251 249 250 248 252 260 266 273 281 285 283 281 289 305 307 303 302 290 274 270 263 253 253 253 255 259 258 256 255 260 269 279 289 301 311 320 327 332 336 336 332 327
218 216 216 219 222 223 221 218 217 218 217 216 217 219 222 225 227 228 226 223 220 217 217 220 217 213 209 212 220 218 212 212 212 214 216 210 206 209 219 239 254 261 259 253 251 253 256 262 268 270 272 273 271 268 270 277 285 292 292 291 289 282 278 275 267 264 262 262 264 261 259 261 264 270 276 284 292 299 306 314 321 325 326 323 317
218 217 218 220 222 223 222 220 217 217 218 219 219 221 223 227 230 231 229 227 226 222 218 221 224 221 216 213 219 222 217 215 211 210 215 214 208 210 221 234 245 251 247 240 244 251 253 255 262 269 269 266 264 265 272 278 282 285 285 287 291 288 282 278 275 273 270 268 267 264 264 265 266 268 273 280 285 290 296 303 310 316 320 319 309
221 221 222 224 225 223 222 221 219 217 218 220 222 222 223 227 231 234 234 232 232 230 223 222 224 227 226 220 220 224 225 225 220 215 216 216 212 214 222 230 239 246 245 240 245 251 252 253 259 264 263 258 258 262 268 274 280 283 282 285 289 290 289 285 281 278 275 273 271 270 271 271 271 272 274 278 282 286 288 291 298 306 313 315 308
226 226 227 228 228 226 224 224 223 220 219 220 223 224 225 227 230 234 237 238 237 236 232 228 225 227 230 228 226 226 227 231 231 225 222 220 217 217 222 228 234 241 245 250 255 258 255 255 257 258 258 251 249 253 256 260 267 273 275 278 281 286 288 285 281 278 275 274 274 274 275 276 276 275 275 277 279 281 281 282 288 297 305 310 306
229 229 229 229 228 227 225 224 225 225 223 223 225 226 227 229 231 233 236 237 239 239 237 235 232 231 232 233 232 230 229 232 234 232 230 229 227 224 225 230 235 240 244 249 256 258 253 251 252 252 253 249 247 250 250 252 257 262 265 268 271 277 280 277 275 273 271 271 271 272 272 273 274 273 272 273 275 276 276 277 282 289 297 301 302
230 231 231 229 228 227 225 224 224 225 226 227 227 227 227 230 232 235 236 237 239 240 240 239 237 237 237 237 237 236 234 236 236 237 237 237 236 232 232 234 237 243 247 247 250 254 252 251 252 250 249 248 248 249 250 252 255 257 259 261 265 271 272 270 267 267 266 265 265 265 266 267 268 268 269 269 270 271 271 272 276 283 289 293 296
229 231 232 230 229 228 228 227 226 227 229 229 228 227 227 229 231 234 236 238 239 241 241 242 241 240 241 241 241 240 239 239 239 240 241 241 240 238 238 239 240 243 247 248 250 254 255 254 254 253 249 247 248 250 252 253 254 255 257 259 263 267 268 265 262 261 261 260 259 260 261 263 264 264 265 266 266 266 265 268 273 278 284 289 293
229 231 232 232 232 231 231 231 230 230 231 231 230 229 228 229 230 233 235 237 239 240 241 242 243 243 244 244 244 243 241 242 242 242 242 242 242 242 243 244 245 246 248 251 253 256 258 257 256 257 253 250 251 253 254 256 257 258 258 260 262 264 265 263 261 260 259 259 259 258 259 260 262 262 262 263 261 259 261 266 272 277 283 287 290
231 231 233 233 234 234 234 235 234 233 233 232 233 233 233 233 232 233 235 238 241 242 242 242 243 245 246 247 246 245 244 245 244 245 245 243 243 245 246 248 250 251 250 252 254 257 261 262 259 258 256 255 255 256 257 259 261 260 260 261 262 262 263 261 261 262 262 261 260 259 259 258 258 260 260 258 255 255 259 265 271 277 283 286 289
233 233 234 235 235 236 236 236 236 236 236 235 236 236 237 238 237 237 237 239 242 245 246 246 245 245 247 248 248 247 247 248 247 247 247 246 245 246 248 250 252 254 254 253 254 257 260 263 262 260 258 258 259 259 258 258 259 258 259 260 260 261 262 262 263 263 263 263 262 260 259 258 257 258 258 255 253 254 259 264 270 276 281 284 288
234 235 235 235 236 237 237 238 239 239 239 239 239 240 241 242 242 242 242 241 242 245 248 250 249 248 248 249 250 250 250 251 252 251 249 249 249 249 250 252 254 255 256 256 257 258 259 262 264 263 260 259 259 260 259 258 258 257 256 257 258 259 261 262 263 264 263 263 262 260 257 255 255 257 256 256 256 256 257 261 267 273 277 281 285
235 236 236 236 237 237 239 240 241 242 243 243 243 243 244 245 246 246 246 246 245 245 247 249 250 250 250 251 252 251 251 252 253 254 254 253 253 252 253 254 256 257 257 258 258 259 260 263 266 266 264 261 259 259 259 259 259 259 257 257 258 259 260 261 263 265 264 263 263 261 259 256 254 255 255 256 256 254 254 257 263 270 273 278 282
235 236 237 238 238 239 240 242 243 245 246 245 246 246 246 247 248 249 250 250 249 248 248 248 249 249 250 252 253 253 253 254 255 255 255 256 256 256 257 257 258 258 258 259 260 259 260 262 264 266 266 264 261 259 258 258 258 259 258 258 258 259 260 261 264 265 265 265 263 262 260 258 255 253 252 253 252 250 252 256 261 267 271 275 279
235 236 237 239 240 241 242 242 244 246 246 247 247 248 248 248 249 250 252 253 253 252 253 252 251 251 251 252 253 254 255 257 258 258 257 257 258 258 260 260 260 260 260 260 260 260 261 262 263 264 265 265 263 260 257 254 252 254 255 256 258 260 261 262 265 266 265 266 265 263 260 258 255 252 250 251 250 250 252 257 261 265 269 272 274
237 237 238 239 241 242 243 243 244 245 245 246 247 248 249 249 250 251 253 254 255 256 256 257 256 255 254 254 255 256 257 259 261 261 261 260 260 260 261 262 261 262 262 262 261 261 261 261 262 263 263 264 263 260 257 253 251 254 255 255 257 261 262 263 263 263 263 264 264 262 258 255 253 251 250 249 249 250 252 255 258 263 267 268 266
238 238 238 239 240 242 243 244 245 246 245 246 248 249 250 251 251 252 253 255 256 257 258 259 260 260 259 259 260 260 261 261 262 263 263 262 262 263 264 263 262 263 263 264 263 263 262 262 263 263 263 264 265 264 262 259 257 257 256 255 257 260 261 260 261 261 259 259 259 259 257 254 251 249 247 247 247 247 249 250 254 258 261 259 256
239 239 239 239 240 241 243 244 246 247 248 249 250 251 252 253 252 252 254 256 257 258 259 260 261 263 263 263 264 264 264 264 264 265 265 265 265 266 266 265 263 263 263 263 264 264 264 264 264 264 263 265 268 269 268 267 264 260 259 258 258 259 258 258 260 261 260 257 257 258 259 257 253 249 247 245 245 245 246 248 250 254 255 252 250
238 239 239 240 241 241 242 244 246 247 250 252 253 254 255 255 254 253 255 257 258 259 261 261 262 264 265 265 266 266 266 267 268 269 269 269 269 269 269 268 266 265 264 264 264 264 265 265 266 265 264 266 269 270 270 271 269 266 264 261 259 259 259 258 260 262 264 262 258 258 260 258 254 251 248 245 244 244 245 246 248 250 250 247 246
237 238 240 241 242 242 242 243 246 248 251 253 254 255 256 256 256 255 255 257 259 261 262 263 264 265 266 267 267 267 268 269 269 270 270 272 272 272 272 271 268 266 265 264 264 264 264 266 267 267 267 268 269 270 271 272 272 270 267 264 262 260 259 259 261 264 267 265 260 258 259 258 254 252 249 245 242 243 242 242 244 245 245 244 244
236 238 240 241 242 242 242 244 246 249 252 254 255 256 256 258 257 256 256 257 259 261 263 264 265 266 267 268 268 269 271 271 270 271 272 273 274 274 275 273 271 270 268 267 266 264 263 263 264 266 268 268 269 272 273 272 272 271 270 270 269 266 264 266 268 268 266 264 262 259 259 258 254 251 249 244 241 241 239 238 240 242 241 240 240
236 238 240 242 243 243 244 245 246 249 252 254 255 257 258 259 258 257 256 257 259 261 262 264 265 266 268 268 270 271 272 272 272 272 273 274 275 276 276 275 275 275 273 272 270 268 267 265 265 268 270 270 271 275 275 272 272 272 273 274 274 272 271 271 269 266 263 261 261 259 258 258 254 251 249 247 243 241 239 238 240 241 239 237 236
238 239 241 242 243 244 245 246 247 249 253 255 255 257 259 259 259 257 257 258 259 260 262 263 264 266 268 268 270 272 273 274 274 274 275 275 275 275 275 276 276 276 276 276 274 272 272 271 270 272 274 274 274 275 275 273 272 272 273 273 271 267 264 263 263 262 260 259 257 256 256 256 252 250 250 249 246 243 241 240 241 241 239 235 233
240 240 241 242 243 244 246 246 247 250 253 255 255 257 259 259 258 258 258 258 259 260 262 263 264 265 267 268 270 272 274 276 276 276 276 275 274 274 274 275 275 276 278 277 274 272 273 272 272 273 275 275 274 274 273 271 271 271 269 266 265 262 259 258 258 259 259 257 254 253 253 253 249 249 252 252 249 246 243 241 242 242 239 233 232
243 243 244 244 245 245 246 247 248 250 252 254 254 255 257 257 257 257 258 259 259 261 262 263 264 266 267 268 269 270 272 275 276 277 276 275 275 275 275 275 274 275 277 277 273 274 275 274 274 273 273 273 272 272 272 270 269 268 265 263 263 261 258 257 258 259 260 258 254 250 249 251 249 248 250 252 251 248 245 242 243 244 239 232 232
245 246 246 246 246 247 247 248 249 250 251 253 253 254 255 256 257 257 257 257 258 260 262 264 265 267 268 269 270 271 273 276 277 277 276 275 274 274 275 274 272 273 277 277 276 277 278 277 277 276 276 276 275 273 273 272 270 267 264 264 261 256 253 255 256 255 255 258 258 251 246 247 248 247 247 247 247 247 245 241 242 243 238 233 233
Height
1589 1589 1590 1590 1590 1591 1591 1591 1591 1591 1591 1591 1591 1591 1590 1590 1590 1590 1590 1590 1590 1590 1590 1591 1591 1591 1591 1592 1592 1593 1592 1593 1593 1593 1593 1593 1594 1594 1594 1594 1594 1594 1594 1595 1595 1595 1596 1596 1597 1597 1597 1597 1597 1597 1597 1597 1598 1598 1598 1598 1598 1598 1598 1598 1598 1598 1598 1599 1599 1599 1599 1599 1599 1600 1599 1599 1599 1599 1599 1598 1598 1597 1597 1597 1596
1589 1589 1590 1590 1590 1591 1591 1591 1591 1591 1591 1591 1591 1591 1590 1590 1590 1590 1590 1590 1590 1590 1590 1591 1591 1592 1592 1592 1592 1593 1593 1593 1594 1593 1593 1594 1594 1594 1594 1594 1594 1595 1595 1595 1595 1596 1596 1596 1597 1597 1597 1597 1597 1597 1597 1597 1597 1598 1598 1598 1598 1598 1598 1598 1599 1599 1599 1599 1599 1599 1599 1599 1599 1599 1599 1599 1599 1599 1599 1598 1598 1597 1597 1597 1596
1589 1590 1590 1590 1590 1591 1591 1591 1591 1591 1591 1591 1591 1591 1591 1590 1590 1590 1590 1590 1590 1590 1590 1591 1591 1592 1592 1592 1592 1593 1593 1594 1594 1594 1594 1594 1594 1594 1594 1594 1594 1595 1595 1595 1596 1596 1596 1597 1597 1597 1597 1597 1597 1597 1597 1597 1597 1597 1598 1598 1598 1598 1599 1599 1599 1599 1599 1599 1599 1599 1599 1599 1599 1599 1599 1599 1599 1599 1599 1598 1598 1598 1597 1597 1597
1589 1590 1590 1590 1591 1591 1591 1591 1591 1591 1591 1591 1591 1591 1591 1590 1590 1590 1590 1590 1590 1590 1591 1591 1592 1592 1592 1592 1592 1593 1593 1594 1594 1594 1594 1594 1594 1594 1594 1595 1595 1595 1595 1595 1596 1596 1596 1597 1597 1597 1597 1597 1597 1597 1597 1597 1597 1597 1598 1598 1598 1598 1599 1599 1599 1599 1599 1599 1599 1600 1600 1600 1600 1600 1599 1599 1599 1599 1599 1598 1598 1598 1597 1597 1597
1588 1589 1590 1590 1591 1591 1591 1591 1591 1591 1591 1591 1591 1591 1591 1590 1590 1590 1590 1590 1590 1591 1591 1592 1592 1592 1592 1592 1592 1593 1594 1594 1595 1594 1594 1595 1595 1595 1595 1595 1595 1595 1595 1595 1595 1596 1596 1596 1596 1596 1597 1597 1597 1597 1597 1597 1597 1597 1598 1598 1598 1598 1599 1599 1599 1599 1599 1600 1600 1600 1600 1600 1600 1600 1599 1599 1599 1599 1599 1598 1598 1598 1597 1597 1597
1588 1589 1590 1591 1591 1591 1591 1591 1591 1591 1591 1591 1591 1591 1590 1590 1590 1590 1590 1590 1591 1591 1591 1592 1592 1592 1591 1591 1592 1593 1594 1594 1595 1595 1595 1595 1595 1595 1595 1595 1595 1595 1595 1595 1595 1595 1596 1596 1596 1596 1596 1597 1597 1597 1597 1597 1597 1597 1598 1598 1598 1598 1599 1599 1599 1599 1599 1600 1600 1600 1600 1600 1600 1600 1599 1599 1599 1599 1598 1598 1598 1598 1597 1597 1597
1588 1589 1590 1591 1591 1591 1591 1591 1592 1591 1591 1591 1591 1591 1590 1590 1590 1590 1590 1590 1591 1591 1591 1591 1591 1591 1591 1592 1592 1593 1594 1595 1595 1595 1595 1595 1595 1595 1595 1595 1595 1595 1595 1595 1595 1595 1595 1595 1596 1596 1596 1597 1597 1597 1597 1597 1597 1597 1598 1598 1598 1598 1599 1599 1599 1599 1599 1599 1599 1599 1599 1599 1599 1599 1599 1599 1599 1598 1598 1598 1598 1597 1597 1597 1596
1588 1589 1590 1590 1591 1591 1591 1591 1591 1591 1591 1591 1591 1591 1591 1591 1591 1590 1590 1590 1591 1591 1591 1591 1591 1591 1591 1592 1592 1593 1594 1595 1595 1595 1595 1595 1595 1595 1595 1595 1595 1595 1595 1595 1595 1595 1595 1595 1595 1596 1596 1596 1596 1597 1597 1597 1597 1597 1598 1598 1598 1598 1599 1599 1599 1599 1599 1599 1599 1599 1599 1599 1599 1599 1599 1599 1598 1598 1598 1597 1597 1597 1597 1596 1596
1588 1589 1589 1590 1590 1591 1591 1591 1591 1591 1591 1591 1591 1591 1591 1591 1591 1591 1590 1591 1591 1591 1591 1591 1591 1591 1592 1592 1593 1593 1594 1595 1595 1595 1595 1595 1595 1595 1595 1595 1595 1595 1595 1595 1595 1595 1595 1595 1595 1595 1596 1596 1596 1596 1597 1597 1597 1597 1598 1598 1598 1598 1598 1598 1598 1599 1599 1599 1599 1599 1599 1599 1599 1599 1598 1598 1598 1598 1597 1597 1597 1596 1596 1596 1595
1587 1588 1589 1589 1590 1590 1590 1590 1591 1591 1591 1591 1591 1591 1591 1591 1591 1591 1591 1591 1591 1591 1591 1591 1591 1591 1592 1593 1593 1594 1594 1595 1595 1595 1595 1595 1595 1596 1596 1596 1596 1596 1595 1595 1595 1595 1595 1595 1595 1595 1595 1595 1596 1596 1597 1597 1597 1598 1598 1598 1598 1598 1598 1598 1598 1598 1598 1598 1598 1598 1599 1598 1598 1598 1598 1598 1598 1597 1597 1597 1596 1596 1596 1595 1595
1586 1587 1588 1588 1589 1590 1590 1590 1590 1590 1590 1590 1590 1590 1591 1591 1591 1591 1591 1591 1591 1591 1591 1591 1592 1593 1593 1593 1594 1594 1595 1595 1595 1595 1595 1596 1596 1596 1596 1596 1596 1596 1596 1596 1596 1595 1595 1595 1595 1595 1595 1595 1596 1596 1596 1597 1597 1597 1598 1598 1598 1598 1598 1598 1598 1598 1598 1598 1598 1598 1598 1598 1598 1598 1598 1597 1597 1597 1597 1596 1596 1596 1595 1595 1594
1585 1586 1587 1587 1588 1589 1589 1590 1590 1590 1590 1590 1590 1590 1590 1590 1590 1591 1591 1591 1591 1591 1592 1592 1593 1593 1594 1594 1595 1595 1595 1595 1595 1596 1596 1596 1596 1596 1596 1596 1596 1596 1596 1596 1596 1596 1596 1595 1595 1595 1595 1595 1596 1596 1596 1596 1597 1597 1597 1597 1598 1597 1597 1597 1597 1598 1597 1598 1598 1598 1598 1597 1597 1597 1597 1597 1597 1597 1596 1596 1596 1595 1595 1594 1593
1584 1585 1586 1586 1587 1588 1589 1589 1589 1590 1590 1589 1589 1590 1590 1590 1590 1590 1590 1591 1591 1592 1592 1593 1593 1593 1594 1595 1595 1595 1596 1596 1596 1596 1596 1596 1596 1596 1596 1596 1596 1596 1596 1596 1596 1596 1596 1596 1596 1596 1596 1595 1596 1596 1596 1596 1596 1597 1597 1597 1597 1597 1597 1597 1597 1597 1597 1597 1597 1597 1597 1597 1597 1597 1597 1597 1597 1596 1596 1596 1595 1595 1594 1593 1593
1582 1583 1585 1585 1586 1587 1588 1588 1589 1589 1589 1589 1589 1589 1589 1590 1590 1590 1590 1591 1591 1592 1592 1593 1593 1593 1594 1595 1595 1596 1596 1596 1596 1596 1596 1597 1597 1597 1596 1596 1597 1597 1597 1596 1597 1597 1596 1596 1596 1596 1596 1595 1595 1596 1596 1596 1596 1596 1596 1596 1597 1597 1597 1597 1597 1597 1597 1597 1597 1597 1597 1597 1597 1597 1596 1596 1596 1596 1596 1595 1595 1594 1594 1593 1593
1581 1582 1583 1584 1585 1586 1587 1587 1588 1588 1588 1588 1588 1589 1589 1589 1589 1590 1590 1590 1591 1591 1592 1592 1593 1593 1594 1594 1595 1596 1596 1596 1596 1596 1597 1597 1597 1597 1597 1596 1597 1597 1597 1597 1597 1597 1596 1596 1596 1596 1596 1596 1595 1595 1595 1595 1595 1596 1596 1596 1596 1596 1596 1596 1596 1596 1596 1596 1596 1596 1596 1596 1596 1596 1596 1596 1596 1595 1595 1595 1594 1594 1593 1593 1592
1580 1581 1582 1583 1584 1584 1585 1586 1587 1588 1588 1588 1588 1588 1589 1589 1589 1589 1590 1590 1591 1591 1591 1592 1592 1592 1593 1594 1595 1595 1595 1595 1595 1596 1596 1597 1597 1597 1597 1597 1596 1597 1597 1597 1597 1597 1596 1596 1596 1596 1596 1596 1595 1595 1595 1595 1595 1595 1595 1595 1595 1596 1596 1596 1596 1596 1596 1596 1596 1596 1596 1596 1596 1595 1595 1595 1595 1595 1595 1594 1594 1594 1593 1593 1592
1579 1580 1581 1582 1583 1583 1584 1585 1586 1587 1587 1587 1587 1588 1588 1588 1589 1589 1589 1590 1590 1590 1591 1591 1592 1592 1593 1593 1594 1594 1594 1595 1595 1596 1596 1596 1597 1597 1597 1596 1596 1596 1597 1597 1597 1597 1597 1596 1596 1595 1595 1596 1595 1595 1595 1595 1595 1595 1595 1595 1595 1595 1595 1596 1595 1595 1595 1595 1595 1595 1595 1595 1595 1595 1595 1595 1595 1595 1594 1594 1594 1593 1593 1593 1592
1577 1578 1580 1581 1582 1582 1583 1584 1585 1586 1586 1587 1587 1587 1588 1588 1588 1588 1589 1589 1590 1590 1590 1591 1591 1592 1593 1593 1593 1593 1593 1594 1594 1595 1595 1596 1596 1596 1596 1596 1596 1596 1596 1596 1597 1597 1596 1596 1596 1595 1595 1595 1595 1595 1595 1595 1595 1595 1595 1595 1595 1595 1595 1595 1595 1595 1595 1595 1595 1595 1595 1595 1595 1595 1595 1594 1594 1594 1594 1594 1593 1593 1593 1592 1592
1576 1577 1578 1579 1581 1581 1582 1583 1584 1585 1586 1586 1586 1587 1587 1587 1588 1588 1588 1589 1589 1589 1589 1590 1590 1591 1592 1592 1592 1592 1592 1593 1593 1593 1594 1595 1596 1596 1596 1596 1596 1596 1596 1596 1596 1596 1596 1596 1596 1595 1595 1594 1594 1595 1595 1595 1595 1595 1595 1594 1594 1594 1594 1594 1594 1595 1594 1594 1594 1595 1595 1595 1594 1594 1594 1594 1594 1594 1593 1593 1593 1592 1592 1592 1591
1574 1576 1577 1578 1579 1580 1581 1582 1583 1584 1585 1585 1586 1586 1586 1587 1587 1587 1588 1588 1588 1589 1589 1589 1590 1591 1591 1592 1592 1592 1592 1592 1593 1593 1593 1594 1595 1596 1596 1596 1595 1595 1595 1595 1595 1596 1596 1596 1596 1595 1595 1594 1594 1594 1594 1594 1594 1594 1594 1594 1594 1594 1594 1594 1594 1594 1594 1594 1594 1594 1594 1594 1594 1594 1594 1593 1593 1593 1593 1593 1592 1592 1592 1591 1591
1573 1574 1576 1577 1578 1579 1580 1581 1582 1583 1583 1584 1585 1585 1585 1586 1586 1587 1587 1587 1588 1588 1588 1589 1590 1590 1591 1591 1591 1592 1592 1592 1593 1593 1593 1594 1595 1595 1596 1595 1595 1594 1594 1595 1595 1595 1595 1595 1595 1595 1594 1594 1594 1594 1594 1594 1594 1594 1594 1594 1593 1593 1593 1593 1593 1593 1594 1594 1594 1594 1593 1593 1593 1593 1593 1593 1593 1592 1592 1592 1592 1591 1591 1591 1590
1571 1573 1574 1575 1577 1578 1579 1580 1581 1582 1582 1583 1584 1584 1584 1585 1585 1586 1586 1587 1587 1587 1588 1588 1589 1590 1590 1590 1591 1591 1591 1591 1592 1592 1593 1593 1594 1594 1595 1595 1594 1594 1594 1594 1594 1594 1594 1595 1595 1595 1594 1594 1594 1594 1593 1593 1593 1593 1593 1593 1593 1593 1593 1593 1593 1593 1593 1593 1593 1593 1593 1593 1593 1592 1592 1592 1592 1592 1591 1591 1591 1590 1590 1589 1589
1570 1571 1572 1574 1575 1577 1578 1579 1580 1581 1581 1582 1582 1583 1584 1584 1585 1585 1586 1586 1586 1587 1587 1588 1588 1589 1589 1590 1590 1590 1590 1591 1591 1591 1592 1592 1593 1594 1594 1594 1594 1594 1593 1593 1593 1593 1593 1594 1594 1594 1594 1594 1594 1594 1593 1593 1593 1593 1593 1593 1593 1593 1593 1593 1593 1593 1593 1592 1592 1592 1592 1592 1592 1592 1591 1591 1591 1590 1590 1590 1589 1589 1588 1588 1588
1568 1569 1571 1572 1573 1575 1576 1577 1578 1579 1580 1581 1581 1582 1583 1584 1584 1584 1585 1585 1586 1586 1586 1587 1587 1588 1588 1589 1589 1590 1590 1590 1591 1591 1591 1592 1592 1593 1593 1593 1593 1593 1593 1593 1592 1592 1592 1592 1593 1593 1593 1593 1593 1593 1593 1593 1592 1592 1592 1592 1592 1592 1592 1592 1592 1592 1592 1592 1591 1591 1591 1591 1591 1591 1590 1590 1590 1589 1589 1589 1588 1588 1587 1587 1586
1565 1567 1569 1570 1572 1573 1575 1576 1577 1578 1579 1580 1580 1581 1582 1582 1583 1583 1584 1585 1585 1585 1585 1586 1586 1587 1588 1588 1589 1589 1589 1590 1590 1590 1591 1591 1591 1592 1592 1592 1592 1592 1592 1592 1592 1591 1591 1591 1592 1592 1592 1592 1592 1592 1592 1592 1592 1591 1591 1591 1591 1591 1591 1591 1591 1591 1591 1591 1591 1590 1590 1590 1590 1590 1589 1589 1589 1588 1588 1588 1587 1587 1586 1585 1585
1563 1565 1567 1568 1570 1571 1573 1574 1576 1577 1578 1579 1579 1580 1581 1581 1582 1582 1583 1584 1584 1584 1585 1585 1586 1586 1587 1587 1588 1588 1588 1589 1589 1589 1590 1590 1590 1590 1591 1591 1590 1590 1590 1590 1590 1590 1589 1590 1590 1590 1590 1590 1591 1591 1591 1591 1591 1590 1590 1590 1590 1590 1590 1590 1590 1589 1589 1589 1589 1589 1589 1589 1589 1589 1588 1588 1588 1588 1587 1587 1586 1586 1585 1585 1584
1562 1564 1565 1567 1568 1570 1571 1573 1574 1575 1576 1578 1578 1579 1579 1580 1581 1581 1582 1583 1583 1584 1584 1585 1585 1585 1586 1586 1587 1587 1588 1588 1588 1588 1589 1589 1589 1590 1590 1590 1590 1589 1589 1589 1589 1588 1588 1588 1589 1588 1589 1589 1589 1590 1590 1590 1590 1589 1589 1589 1589 1589 1589 1589 1588 1588 1588 1588 1588 1588 1588 1588 1588 1587 1587 1587 1587 1587 1586 1586 1586 1585 1585 1584 1583
1560 1562 1564 1565 1567 1568 1570 1571 1572 1574 1575 1576 1577 1578 1578 1579 1579 1580 1581 1581 1582 1583 1583 1584 1584 1585 1585 1586 1586 1586 1587 1587 1587 1588 1588 1588 1588 1588 1589 1589 1589 1589 1588 1588 1587 1586 1587 1587 1587 1587 1587 1587 1587 1588 1588 1588 1588 1588 1588 1588 1588 1587 1587 1587 1587 1587 1586 1586 1586 1586 1586 1586 1586 1586 1586 1586 1586 1585 1585 1585 1584 1584 1583 1583 1582
1559 1560 1562 1563 1565 1566 1568 1569 1570 1572 1573 1574 1575 1576 1577 1577 1578 1578 1579 1580 1581 1581 1582 1583 1583 1584 1584 1584 1585 1585 1586 1586 1586 1586 1587 1587 1587 1587 1587 1587 1588 1587 1587 1586 1585 1585 1586 1586 1586 1585 1586 1586 1586 1586 1586 1586 1586 1586 1586 1586 1586 1586 1585 1585 1585 1585 1585 1584 1584 1584 1584 1584 1584 1584 1584 1584 1584 1584 1583 1583 1583 1582 1582 1581 1581
1556 1558 1560 1561 1563 1564 1566 1567 1568 1570 1571 1572 1573 1574 1575 1576 1576 1577 1578 1579 1579 1580 1580 1581 1582 1582 1582 1583 1583 1584 1584 1584 1585 1585 1585 1585 1585 1585 1586 1586 1586 1586 1586 1585 1584 1583 1584 1584 1584 1584 1584 1584 1585 1585 1585 1585 1585 1585 1584 1584 1584 1584 1584 1583 1583 1583 1583 1583 1582 1582 1582 1582 1582 1582 1582 1582 1582 1582 1582 1581 1581 1581 1580 1580 1579
1554 1556 1558 1559 1561 1562 1564 1565 1566 1568 1569 1570 1571 1572 1573 1574 1574 1575 1576 1577 1577 1578 1578 1579 1580 1580 1580 1581 1581 1581 1582 1583 1583 1583 1583 1584 1584 1584 1584 1584 1585 1584 1584 1584 1583 1582 1582 1583 1583 1583 1583 1583 1583 1583 1583 1583 1583 1583 1583 1582 1582 1582 1582 1582 1581 1581 1581 1581 1581 1581 1580 1580 1580 1580 1580 1580 1580 1580 1580 1580 1580 1579 1579 1578 1577
1551 1553 1555 1557 1558 1560 1561 1563 1564 1565 1567 1568 1569 1570 1571 1571 1572 1573 1574 1575 1575 1575 1576 1577 1578 1578 1578 1579 1579 1579 1580 1581 1581 1581 1582 1582 1582 1582 1582 1582 1582 1582 1583 1583 1581 1579 1580 1581 1581 1582 1582 1581 1581 1581 1580 1581 1581 1581 1581 1580 1581 1581 1580 1580 1580 1580 1579 1579 1579 1579 1579 1579 1579 1579 1579 1579 1578 1578 1578 1578 1578 1578 1577 1577 1576
1549 1551 1552 1554 1556 1557 1559 1560 1562 1563 1564 1565 1567 1568 1568 1569 1570 1571 1571 1572 1573 1573 1574 1575 1575 1576 1576 1577 1577 1577 1578 1578 1578 1579 1579 1580 1580 1580 1580 1580 1580 1580 1580 1580 1578 1577 1578 1579 1579 1579 1580 1579 1578 1578 1578 1578 1578 1578 1578 1578 1578 1578 1578 1578 1578 1578 1578 1577 1577 1577 1577 1577 1577 1577 1577 1577 1577 1577 1576 1576 1576 1576 1575 1575 1574
1546 1548 1550 1552 1553 1555 1556 1558 1559 1560 1561 1563 1564 1565 1565 1566 1567 1568 1568 1569 1570 1571 1572 1572 1572 1573 1574 1574 1574 1575 1576 1575 1576 1576 1577 1578 1578 1578 1578 1578 1577 1578 1577 1577 1576 1575 1575 1576 1576 1576 1577 1576 1575 1575 1575 1575 1576 1576 1576 1576 1576 1576 1576 1576 1576 1576 1576 1575 1575 1575 1575 1574 1574 1575 1575 1575 1575 1575 1574 1574 1574 1574 1573 1573 1572
1543 1545 1547 1549 1551 1552 1554 1555 1556 1557 1559 1560 1561 1561 1562 1563 1564 1565 1566 1566 1567 1568 1568 1569 1570 1570 1571 1571 1571 1572 1573 1573 1573 1574 1574 1575 1576 1575 1575 1575 1575 1575 1575 1575 1574 1573 1572 1573 1574 1574 1574 1573 1573 1573 1573 1573 1574 1574 1573 1573 1573 1573 1573 1573 1573 1573 1573 1573 1573 1572 1572 1572 1572 1572 1572 1572 1572 1572 1572 1572 1572 1572 1571 1571 1570
1540 1542 1544 1546 1548 1550 1551 1552 1553 1554 1555 1556 1557 1558 1559 1560 1561 1562 1563 1564 1564 1565 1565 1566 1567 1567 1567 1567 1568 1569 1570 1570 1570 1571 1572 1572 1573 1572 1572 1572 1572 1571 1572 1572 1571 1571 1570 1569 1570 1571 1571 1571 1570 1571 1571 1571 1571 1571 1570 1570 1570 1570 1570 1570 1570 1570 1570 1570 1570 1570 1569 1569 1569 1569 1569 1569 1570 1570 1569 1569 1569 1569 1569 1568 1568
1537 1539 1541 1543 1545 1546 1547 1548 1550 1551 1552 1553 1554 1555 1555 1557 1558 1559 1560 1561 1561 1561 1562 1562 1563 1564 1564 1564 1565 1566 1567 1567 1568 1569 1569 1570 1570 1569 1569 1569 1568 1568 1569 1568 1568 1568 1568 1566 1566 1568 1569 1568 1568 1568 1568 1568 1568 1567 1567 1567 1566 1566 1566 1566 1566 1567 1567 1567 1566 1566 1566 1566 1566 1566 1566 1567 1567 1566 1566 1566 1566 1566 1566 1566 1565
1534 1535 1537 1539 1540 1542 1543 1545 1546 1547 1548 1550 1550 1551 1552 1553 1554 1555 1556 1557 1557 1558 1558 1559 1559 1560 1560 1561 1562 1564 1564 1564 1565 1566 1566 1567 1567 1566 1566 1565 1566 1565 1565 1565 1565 1565 1565 1564 1563 1564 1565 1565 1565 1564 1564 1564 1564 1563 1563 1563 1562 1562 1562 1562 1562 1563 1563 1563 1563 1563 1563 1563 1564 1563 1563 1563 1563 1563 1563 1563 1563 1563 1563 1563 1562
1530 1531 1533 1535 1537 1538 1540 1541 1542 1543 1545 1546 1547 1548 1549 1550 1551 1551 1552 1552 1553 1554 1555 1555 1556 1557 1557 1558 1559 1560 1561 1561 1562 1563 1563 1563 1563 1563 1562 1562 1563 1562 1562 1562 1562 1562 1561 1561 1560 1560 1560 1561 1561 1561 1561 1561 1561 1559 1559 1558 1557 1557 1557 1557 1557 1558 1559 1559 1559 1560 1560 1560 1560 1560 1560 1560 1560 1560 1560 1560 1560 1560 1560 1560 1559
1526 1527 1529 1531 1533 1535 1536 1538 1539 1540 1541 1542 1543 1545 1546 1546 1547 1547 1548 1548 1549 1550 1551 1551 1552 1553 1554 1555 1555 1556 1557 1557 1558 1559 1559 1560 1560 1559 1559 1559 1559 1559 1558 1558 1558 1558 1558 1557 1556 1556 1556 1556 1556 1557 1557 1557 1555 1553 1553 1553 1552 1552 1553 1553 1553 1555 1555 1555 1556 1556 1556 1556 1556 1556 1556 1556 1556 1557 1557 1557 1557 1557 1557 1557 1556
1522 1524 1526 1528 1530 1531 1532 1534 1535 1536 1537 1538 1539 1540 1541 1542 1543 1543 1544 1544 1545 1546 1547 1547 1548 1549 1550 1551 1552 1553 1553 1554 1554 1555 1555 1556 1556 1555 1556 1556 1556 1555 1555 1555 1554 1554 1553 1552 1552 1552 1552 1551 1550 1551 1552 1551 1549 1549 1550 1551 1549 1548 1550 1550 1550 1551 1552 1552 1552 1551 1551 1552 1552 1552 1552 1552 1553 1553 1553 1553 1553 1554 1554 1554 1553
1518 1520 1523 1525 1526 1527 1528 1530 1531 1532 1532 1534 1535 1536 1537 1538 1539 1540 1541 1541 1542 1543 1543 1544 1544 1545 1546 1547 1547 1548 1550 1550 1551 1551 1551 1551 1551 1551 1552 1552 1552 1552 1552 1551 1550 1550 1549 1548 1547 1548 1547 1545 1545 1546 1546 1546 1547 1547 1548 1547 1546 1546 1547 1546 1545 1546 1547 1548 1548 1546 1546 1547 1548 1548 1548 1548 1549 1549 1549 1549 1550 1550 1550 1550 1549
1514 1517 1519 1520 1521 1523 1524 1526 1527 1527 1528 1529 1530 1532 1533 1534 1536 1537 1538 1538 1539 1539 1540 1540 1540 1541 1542 1543 1543 1545 1545 1546 1546 1547 1547 1547 1547 1547 1547 1547 1547 1548 1548 1547 1546 1545 1545 1543 1542 1543 1542 1540 1541 1542 1541 1542 1543 1544 1544 1544 1544 1544 1543 1542 1541 1541 1542 1544 1544 1542 1542 1543 1544 1544 1544 1544 1545 1545 1545 1545 1546 1546 1546 1546 1546
1511 1513 1514 1516 1517 1519 1520 1521 1522 1523 1524 1525 1526 1528 1529 1531 1533 1534 1534 1535 1536 1536 1536 1537 1537 1538 1539 1539 1540 1541 1541 1541 1542 1542 1543 1543 1543 1543 1543 1542 1542 1543 1543 1542 1541 1541 1541 1539 1538 1538 1537 1536 1537 1538 1537 1538 1539 1539 1540 1540 1540 1540 1539 1539 1537 1536 1538 1541 1541 1538 1537 1539 1540 1539 1539 1540 1541 1541 1541 1542 1543 1544 1544 1543 1543
1508 1509 1510 1512 1513 1514 1516 1517 1518 1519 1520 1521 1523 1524 1526 1527 1529 1531 1532 1532 1532 1532 1533 1534 1535 1535 1536 1536 1536 1536 1537 1537 1538 1538 1539 1538 1539 1539 1538 1537 1537 1537 1537 1537 1536 1536 1537 1536 1534 1532 1532 1533 1533 1533 1534 1535 1535 1535 1535 1535 1536 1536 1535 1534 1533 1534 1536 1537 1537 1536 1534 1535 1536 1535 1534 1536 1537 1537 1538 1539 1540 1540 1540 1540 1540
1504 1505 1506 1507 1508 1510 1511 1513 1514 1515 1516 1517 1519 1521 1522 1524 1526 1527 1529 1529 1529 1529 1530 1531 1532 1532 1532 1532 1532 1532 1533 1534 1534 1534 1534 1534 1534 1534 1533 1532 1531 1531 1532 1530 1530 1532 1533 1532 1530 1527 1528 1530 1529 1528 1531 1533 1532 1531 1531 1531 1532 1532 1531 1530 1530 1532 1533 1533 1534 1534 1531 1531 1533 1532 1530 1532 1533 1534 1534 1535 1536 1537 1537 1537 1537
1499 1501 1502 1503 1504 1506 1507 1509 1510 1511 1511 1513 1516 1517 1519 1521 1523 1525 1526 1526 1526 1526 1527 1527 1528 1528 1528 1529 1529 1529 1529 1529 1530 1530 1530 1530 1530 1529 1528 1526 1525 1526 1525 1523 1524 1526 1527 1526 1525 1523 1523 1525 1525 1525 1528 1529 1528 1528 1528 1528 1528 1528 1528 1528 1528 1529 1529 1530 1531 1531 1528 1527 1530 1529 1527 1529 1530 1530 1531 1532 1533 1533 1533 1533 1534
1496 1497 1498 1500 1501 1503 1504 1506 1507 1507 1508 1510 1512 1514 1516 1518 1520 1522 1523 1523 1523 1523 1523 1524 1524 1524 1525 1525 1525 1525 1525 1524 1525 1526 1527 1527 1526 1524 1522 1520 1520 1519 1516 1515 1517 1521 1521 1520 1520 1520 1520 1521 1521 1521 1523 1524 1524 1524 1526 1524 1523 1524 1525 1525 1524 1524 1525 1526 1527 1526 1525 1525 1526 1526 1525 1526 1527 1527 1528 1529 1529 1530 1530 1530 1531
1492 1493 1494 1496 1497 1499 1501 1502 1503 1503 1505 1507 1509 1511 1513 1515 1517 1519 1519 1519 1519 1519 1519 1520 1520 1521 1521 1521 1521 1521 1520 1520 1521 1522 1523 1523 1522 1519 1517 1515 1515 1512 1507 1507 1512 1514 1514 1514 1515 1515 1515 1516 1517 1517 1518 1519 1519 1521 1521 1518 1517 1520 1521 1519 1518 1519 1521 1523 1523 1523 1522 1521 1522 1523 1523 1523 1524 1524 1525 1525 1526 1526 1526 1527 1527
1487 1489 1491 1492 1494 1496 1497 1498 1499 1500 1502 1504 1506 1508 1510 1512 1514 1515 1515 1515 1515 1515 1515 1516 1516 1517 1517 1517 1518 1518 1516 1516 1518 1519 1519 1519 1517 1515 1514 1512 1511 1505 1500 1503 1508 1508 1508 1508 1508 1509 1510 1511 1512 1512 1512 1513 1514 1516 1515 1512 1513 1516 1515 1514 1514 1516 1518 1517 1518 1520 1519 1517 1518 1520 1520 1520 1520 1520 1520 1522 1522 1523 1523 1523 1524
1483 1485 1487 1489 1490 1491 1493 1494 1496 1497 1499 1501 1503 1505 1507 1509 1510 1511 1512 1512 1511 1510 1511 1512 1512 1513 1513 1513 1514 1514 1513 1513 1514 1514 1515 1515 1513 1511 1510 1509 1505 1498 1497 1502 1505 1503 1502 1502 1501 1502 1502 1503 1505 1507 1507 1508 1508 1508 1507 1506 1507 1508 1507 1507 1510 1513 1513 1510 1512 1516 1516 1513 1514 1515 1515 1516 1516 1515 1516 1518 1518 1519 1519 1520 1521